sat.trackr.live / text

‹ back to catalog

ICEYE-X80

NORAD 69893 · 2026-156AA

PAYLOAD ACTIVE UNKNOWN

§ Identity

Operator
Country
FIN
Launch date
2026-07-07
Launch site
AFWTR
Launch vehicle
Mass (kg)
RCS (m²)

External: N2YO · Heavens-Above · Gunter

§ Orbital elements

Epoch: 2026-09-19T22:39:43.020288Z

Period
96.54 min
Inclination
97.7458°
Eccentricity
0.0003755
Mean motion
14.91626443 rev/d
Perigee alt
590.2 km
Apogee alt
595.5 km
Semi-major
6,971.0 km
B*
1.8120e-4
RAAN
162.1209°
Arg perigee
254.6400°
Mean anomaly
105.4404°
Rev number
1,112

§ Raw data

ICEYE-X801 69893U 26156AA  26262.94424792  .00001764  00000+0  18120-3 0  99962 69893  97.7458 162.1209 0003755 254.6400 105.4404 14.91626443 11122

JSON: /api/v1/satellites/69893 · /tle

For live sub-satellite position, see the globe view (requires WebGL).

§ Visibility from observer

Set your observer location to see the next 7 days of passes ≥ 10°. The values pass through the URL so the page stays shareable.

No JS? Fill the form by hand. The geolocation button needs JavaScript.